AT&T T-16

Last updated on Thu Nov 21 2024 00:02:44 GMT+0000 (Coordinated Universal Time)

1 44333U 19034A 24325.40987635 -.00000113 00000+0 00000+0 0 9996 2 44333 0.0138 338.8214 0000557 121.4981 6.2972 1.00269420 19889
UTC large
Height (km)
Speed (km/s)
/
Latitude / Longitude
Inclination (degrees)
Orbital Period (minutes)
Azimuth
Elevation
Range (km)
Doppler Factor

Next 0 passes for location: London (51.5072 / 0.1276)

Sorry there are no passes over London.